This demonstration page uses our WeatherBlox Daily Observations layout. Learn more.

Left ArrowRight Arrow

38.80484, -77.04692

Hourly Observations for August 24, 2022

Temp ( °F °C ) Dew Point ( °F °C ) Humidity (%) Winds ( mph kmh ) Pressure ( in mb ) Visibility ( mi km ) Precip ( " mm )
12:52 am 00:52 Clear 75 23.9 61 16.1 62 62 VRB 3 6 29.96 1014 10 16 0.00 0.00
1:52 am 01:52 Clear 73 22.8 60 15.6 64 64 N 6 9 29.96 1015 10 16 0.00 0.00
2:52 am 02:52 Clear 73 22.8 61 16.1 66 66 Calm 29.96 1015 10 16 0.00 0.00
3:52 am 03:52 Clear 72 22.2 60 15.6 66 66 NNW 6 9 29.97 1015 10 16 0.00 0.00
4:52 am 04:52 Clear 71 21.7 61 16.1 70 70 NNE 5 7 29.98 1015 10 16 0.00 0.00
5:52 am 05:52 Mostly Clear 70 21.1 61 16.1 73 73 N 7 11 29.98 1015 10 16 0.00 0.00
6:52 am 06:52 Mostly Sunny 70 21.1 61 16.1 73 73 N 7 11 30.00 1016 10 16 0.00 0.00
7:52 am 07:52 Mostly Sunny 73 22.8 63 17.2 71 71 N 6 9 30.02 1017 10 16 0.00 0.00
8:52 am 08:52 Mostly Sunny 76 24.4 63 17.2 64 64 NNW 9 15 30.04 1017 10 16 0.00 0.00
9:52 am 09:52 Partly Cloudy 81 27.2 63 17.2 54 54 NNW 5 7 30.05 1018 10 16 0.00 0.00
10:52 am 10:52 Partly Cloudy 84 28.9 66 18.9 55 55 NNE 6 9 30.05 1018 10 16 0.00 0.00
11:52 am 11:52 Partly Cloudy 86 30 63 17.2 46 46 NNW 8 13 30.04 1017 10 16 0.00 0.00
12:52 pm 12:52 Partly Cloudy 87 30.6 65 18.3 48 48 N 9 15 30.03 1017 10 16 0.00 0.00
1:52 pm 13:52 Partly Cloudy 89 31.7 64 17.8 44 44 N 8 13 30.02 1017 10 16 0.00 0.00
2:52 pm 14:52 Partly Cloudy 89 31.7 62 16.7 41 41 NNW 8 13 30.01 1016 10 16 0.00 0.00
3:52 pm 15:52 Partly Cloudy 89 31.7 62 16.7 41 41 NW 13 20 30.00 1016 10 16 0.00 0.00
4:52 pm 16:52 Mostly Sunny 89 31.7 62 16.7 41 41 N 12 19 29.99 1016 10 16 0.00 0.00
5:52 pm 17:52 Mostly Sunny 88 31.1 61 16.1 41 41 N 10 17 29.99 1016 10 16 0.00 0.00
6:52 pm 18:52 Mostly Sunny 86 30 62 16.7 45 45 NNW 9 15 30.00 1016 10 16 0.00 0.00
7:52 pm 19:52 Mostly Clear 83 28.3 61 16.1 48 48 N 7 11 30.00 1016 10 16 0.00 0.00
8:52 pm 20:52 Clear 81 27.2 61 16.1 51 51 N 6 9 30.01 1016 10 16 0.00 0.00
9:52 pm 21:52 Mostly Clear 80 26.7 65 18.3 60 60 Calm 30.03 1017 10 16 0.00 0.00
10:52 pm 22:52 Partly Cloudy 78 25.6 63 17.2 60 60 Calm 30.04 1017 10 16 0.00 0.00
11:52 pm 23:52 Partly Cloudy 78 25.6 63 17.2 60 60 SSW 3 6 30.06 1018 10 16 0.00 0.00

Powered by AerisWeather